Time,TemperatureF,DewpointF,PressureIn,WindDirection,WindDirectionDegrees,WindSpeedMPH,WindSpeedGustMPH,Humidity,HourlyPrecipIn,Conditions,Clouds,dailyrainin,SoftwareType,DateUTC
2013-02-09 09:24:00,49.4,43.2,30.04,NE,46,0.0,13.0,79,0.00,,,0.01,Wunderground v.1.15,2013-02-09 17:24:00,
2013-02-09 09:34:00,49.6,43.7,30.04,East,82,0.0,0.0,80,0.00,,,0.01,Wunderground v.1.15,2013-02-09 17:34:00,
2013-02-09 09:44:00,50.3,43.7,30.05,East,88,0.0,0.0,78,0.00,,,0.01,Wunderground v.1.15,2013-02-09 17:44:00,
2013-02-09 09:54:00,50.7,44.4,30.05,SE,128,0.0,0.0,79,0.00,,,0.01,Wunderground v.1.15,2013-02-09 17:54:00,
2013-02-09 10:04:00,50.9,43.9,30.05,SE,126,0.0,0.0,77,0.00,,,0.01,Wunderground v.1.15,2013-02-09 18:04:00,
2013-02-09 10:14:00,51.9,44.2,30.05,SSW,205,0.0,0.0,75,0.00,,,0.02,Wunderground v.1.15,2013-02-09 18:14:00,
2013-02-09 10:24:00,52.2,44.2,30.05,South,175,0.0,0.0,74,0.00,,,0.02,Wunderground v.1.15,2013-02-09 18:24:00,
2013-02-09 10:34:00,52.7,43.9,30.05,SE,132,0.0,4.0,72,0.00,,,0.02,Wunderground v.1.15,2013-02-09 18:34:00,
2013-02-09 10:44:00,52.8,44.4,30.05,WSW,252,1.0,1.0,73,0.00,,,0.02,Wunderground v.1.15,2013-02-09 18:44:00,
2013-02-09 10:53:00,52.6,44.2,30.05,South,186,2.0,2.0,73,0.00,,,0.02,Wunderground v.1.15,2013-02-09 18:53:00,
2013-02-09 11:04:00,53.2,44.4,30.05,SW,221,2.0,2.0,72,0.00,,,0.02,Wunderground v.1.15,2013-02-09 19:04:00,
2013-02-09 11:14:00,54.2,43.5,30.05,South,173,1.0,2.0,67,0.00,,,0.02,Wunderground v.1.15,2013-02-09 19:14:00,
2013-02-09 11:24:00,53.2,43.7,30.06,WSW,248,1.0,1.0,70,0.00,,,0.02,Wunderground v.1.15,2013-02-09 19:24:00,
2013-02-09 11:34:00,53.7,44.9,30.05,South,190,0.0,0.0,72,0.00,,,0.02,Wunderground v.1.15,2013-02-09 19:34:00,
2013-02-09 11:44:00,53.8,41.5,30.05,West,269,0.0,0.0,63,0.00,,,0.02,Wunderground v.1.15,2013-02-09 19:44:00,
2013-02-09 11:54:00,53.5,42.4,30.05,SW,229,0.0,0.0,66,0.00,,,0.02,Wunderground v.1.15,2013-02-09 19:54:00,
2013-02-09 12:04:00,53.9,42.8,30.05,NNW,329,0.0,0.0,66,0.00,,,0.02,Wunderground v.1.15,2013-02-09 20:04:00,
2013-02-09 12:14:00,53.8,41.5,30.05,WSW,248,0.0,0.0,63,0.00,,,0.02,Wunderground v.1.15,2013-02-09 20:14:00,
2013-02-09 12:24:00,54.2,42.7,30.04,SSW,193,0.0,0.0,65,0.00,,,0.02,Wunderground v.1.15,2013-02-09 20:24:00,
2013-02-09 12:34:00,54.9,43.4,30.04,SW,221,0.0,4.0,65,0.00,,,0.02,Wunderground v.1.15,2013-02-09 20:34:00,
2013-02-09 12:44:00,55.1,39.2,30.04,West,281,2.0,2.0,55,0.00,,,0.02,Wunderground v.1.15,2013-02-09 20:44:00,
2013-02-09 12:54:00,55.6,37.7,30.04,SW,232,1.0,1.0,51,0.00,,,0.02,Wunderground v.1.15,2013-02-09 20:54:00,
2013-02-09 13:04:00,55.5,35.6,30.04,WSW,258,0.0,0.0,47,0.00,,,0.02,Wunderground v.1.15,2013-02-09 21:04:00,
2013-02-09 13:14:00,54.9,37.6,30.03,SW,217,1.0,1.0,52,0.00,,,0.02,Wunderground v.1.15,2013-02-09 21:14:00,
2013-02-09 13:24:00,54.6,39.2,30.03,West,272,1.0,1.0,56,0.00,,,0.02,Wunderground v.1.15,2013-02-09 21:24:00,
2013-02-09 13:34:00,55.4,40.0,30.04,NNW,343,0.0,0.0,56,0.00,,,0.02,Wunderground v.1.15,2013-02-09 21:34:00,
2013-02-09 13:44:00,55.6,41.5,30.03,SSW,194,1.0,1.0,59,0.00,,,0.02,Wunderground v.1.15,2013-02-09 21:44:00,
2013-02-09 13:54:00,54.6,41.0,30.03,West,266,2.0,2.0,60,0.00,,,0.02,Wunderground v.1.15,2013-02-09 21:54:00,
2013-02-09 14:04:00,54.4,42.1,30.04,WSW,247,1.0,1.0,63,0.00,,,0.02,Wunderground v.1.15,2013-02-09 22:04:00,
2013-02-09 14:14:00,54.6,41.8,30.04,WSW,240,0.0,0.0,62,0.00,,,0.02,Wunderground v.1.15,2013-02-09 22:14:00,
2013-02-09 14:24:00,54.6,42.7,30.04,SSW,193,0.0,0.0,64,0.00,,,0.02,Wunderground v.1.15,2013-02-09 22:24:00,
2013-02-09 14:34:00,55.1,41.9,30.04,South,174,1.0,1.0,61,0.00,,,0.02,Wunderground v.1.15,2013-02-09 22:34:00,
2013-02-09 14:44:00,55.1,42.7,30.04,West,263,1.0,1.0,63,0.00,,,0.02,Wunderground v.1.15,2013-02-09 22:44:00,
2013-02-09 14:54:00,55.4,43.0,30.04,South,180,0.0,0.0,63,0.00,,,0.02,Wunderground v.1.15,2013-02-09 22:54:00,
2013-02-09 15:04:00,55.4,43.0,30.04,WNW,289,0.0,0.0,63,0.00,,,0.02,Wunderground v.1.15,2013-02-09 23:04:00,
2013-02-09 15:14:00,54.8,42.4,30.03,West,273,1.0,1.0,63,0.00,,,0.02,Wunderground v.1.15,2013-02-09 23:14:00,
2013-02-09 15:24:00,54.3,42.4,30.03,West,280,0.0,0.0,64,0.00,,,0.02,Wunderground v.1.15,2013-02-09 23:24:00,
2013-02-09 15:33:00,55.0,42.6,30.03,WNW,298,0.0,6.0,63,0.00,,,0.02,Wunderground v.1.15,2013-02-09 23:33:00,
2013-02-09 15:44:00,54.6,41.8,30.03,SSW,211,2.0,2.0,62,0.00,,,0.02,Wunderground v.1.15,2013-02-09 23:44:00,
2013-02-09 15:54:00,54.8,41.6,30.03,West,276,0.0,4.0,61,0.00,,,0.02,Wunderground v.1.15,2013-02-09 23:54:00,
2013-02-09 16:04:00,54.4,42.1,30.03,WSW,254,1.0,1.0,63,0.00,,,0.02,Wunderground v.1.15,2013-02-10 00:04:00,
2013-02-09 16:14:00,54.4,41.6,30.03,SSW,213,0.0,0.0,62,0.00,,,0.02,Wunderground v.1.15,2013-02-10 00:14:00,
2013-02-09 16:24:00,54.7,41.9,30.03,West,263,0.0,0.0,62,0.00,,,0.02,Wunderground v.1.15,2013-02-10 00:24:00,
2013-02-09 16:34:00,54.0,42.1,30.03,West,265,0.0,0.0,64,0.00,,,0.02,Wunderground v.1.15,2013-02-10 00:34:00,
2013-02-09 16:44:00,53.8,42.3,30.03,SSW,209,0.0,0.0,65,0.00,,,0.02,Wunderground v.1.15,2013-02-10 00:44:00,
2013-02-09 16:54:00,53.7,42.6,30.03,SW,215,0.0,2.0,66,0.00,,,0.02,Wunderground v.1.15,2013-02-10 00:54:00,
2013-02-09 17:04:00,52.8,42.1,30.03,WSW,238,0.0,0.0,67,0.00,,,0.02,Wunderground v.1.15,2013-02-10 01:04:00,
2013-02-09 17:14:00,52.2,42.7,30.04,WNW,283,0.0,0.0,70,0.00,,,0.02,Wunderground v.1.15,2013-02-10 01:14:00,
2013-02-09 17:24:00,51.9,42.8,30.03,West,269,0.0,0.0,71,0.00,,,0.02,Wunderground v.1.15,2013-02-10 01:24:00,
2013-02-09 17:34:00,51.3,42.6,30.03,West,269,0.0,0.0,72,0.00,,,0.02,Wunderground v.1.15,2013-02-10 01:34:00,
2013-02-09 17:44:00,51.0,42.6,30.04,West,269,0.0,0.0,73,0.00,,,0.02,Wunderground v.1.15,2013-02-10 01:44:00,
2013-02-09 17:54:00,50.6,42.6,30.04,West,269,0.0,0.0,74,0.00,,,0.02,Wunderground v.1.15,2013-02-10 01:54:00,
2013-02-09 18:04:00,50.4,42.4,30.04,West,269,0.0,0.0,74,0.00,,,0.02,Wunderground v.1.15,2013-02-10 02:04:00,
2013-02-09 18:14:00,50.0,42.4,30.04,West,269,0.0,0.0,75,0.00,,,0.02,Wunderground v.1.15,2013-02-10 02:14:00,
2013-02-09 18:24:00,49.7,42.4,30.05,West,269,0.0,0.0,76,0.00,,,0.02,Wunderground v.1.15,2013-02-10 02:24:00,
2013-02-09 18:34:00,49.5,42.9,30.05,West,269,0.0,0.0,78,0.00,,,0.02,Wunderground v.1.15,2013-02-10 02:34:00,
2013-02-09 18:44:00,49.4,42.8,30.05,West,269,0.0,0.0,78,0.00,,,0.02,Wunderground v.1.15,2013-02-10 02:44:00,
2013-02-09 18:54:00,49.0,42.8,30.05,West,269,0.0,0.0,79,0.00,,,0.02,Wunderground v.1.15,2013-02-10 02:54:00,
2013-02-09 19:04:00,48.5,42.6,30.05,West,269,0.0,0.0,80,0.00,,,0.02,Wunderground v.1.15,2013-02-10 03:04:00,
2013-02-09 19:13:00,48.2,42.6,30.06,West,269,0.0,0.0,81,0.00,,,0.02,Wunderground v.1.15,2013-02-10 03:13:00,
2013-02-09 19:24:00,48.0,42.4,30.06,West,269,0.0,0.0,81,0.00,,,0.02,Wunderground v.1.15,2013-02-10 03:24:00,
2013-02-09 19:34:00,47.8,42.6,30.06,West,269,0.0,0.0,82,0.00,,,0.02,Wunderground v.1.15,2013-02-10 03:34:00,
2013-02-09 19:44:00,47.5,42.3,30.06,West,269,0.0,0.0,82,0.00,,,0.02,Wunderground v.1.15,2013-02-10 03:44:00,
2013-02-09 19:54:00,47.1,41.9,30.07,West,269,0.0,0.0,82,0.00,,,0.02,Wunderground v.1.15,2013-02-10 03:54:00,
2013-02-09 20:04:00,46.9,41.7,30.07,West,269,0.0,0.0,82,0.00,,,0.02,Wunderground v.1.15,2013-02-10 04:04:00,
2013-02-09 20:14:00,46.7,41.5,30.07,ESE,119,0.0,0.0,82,0.00,,,0.02,Wunderground v.1.15,2013-02-10 04:14:00,
2013-02-09 20:24:00,46.5,41.3,30.07,ESE,119,0.0,0.0,82,0.00,,,0.02,Wunderground v.1.15,2013-02-10 04:24:00,
2013-02-09 20:34:00,46.1,41.2,30.08,ESE,119,0.0,0.0,83,0.00,,,0.02,Wunderground v.1.15,2013-02-10 04:34:00,
2013-02-09 20:44:00,46.1,41.2,30.08,ESE,119,0.0,0.0,83,0.00,,,0.02,Wunderground v.1.15,2013-02-10 04:44:00,
2013-02-09 20:54:00,45.8,40.9,30.08,ESE,118,0.0,0.0,83,0.00,,,0.02,Wunderground v.1.15,2013-02-10 04:54:00,
2013-02-09 21:04:00,45.3,40.4,30.08,ESE,118,0.0,0.0,83,0.00,,,0.02,Wunderground v.1.15,2013-02-10 05:04:00,
2013-02-09 21:14:00,44.7,40.2,30.09,ESE,119,0.0,0.0,84,0.00,,,0.02,Wunderground v.1.15,2013-02-10 05:14:00,
2013-02-09 21:24:00,44.2,40.0,30.09,ESE,118,0.0,0.0,85,0.00,,,0.02,Wunderground v.1.15,2013-02-10 05:24:00,
2013-02-09 21:34:00,44.3,40.1,30.09,ESE,118,0.0,0.0,85,0.00,,,0.02,Wunderground v.1.15,2013-02-10 05:34:00,
2013-02-09 21:44:00,44.3,39.8,30.09,ESE,119,0.0,0.0,84,0.00,,,0.02,Wunderground v.1.15,2013-02-10 05:44:00,
2013-02-09 21:54:00,44.9,40.0,30.09,ESE,103,0.0,0.0,83,0.00,,,0.02,Wunderground v.1.15,2013-02-10 05:54:00,
2013-02-09 22:04:00,45.3,39.8,30.09,ESE,113,0.0,0.0,81,0.00,,,0.02,Wunderground v.1.15,2013-02-10 06:04:00,
2013-02-09 22:14:00,45.1,39.6,30.09,ESE,106,0.0,0.0,81,0.00,,,0.02,Wunderground v.1.15,2013-02-10 06:14:00,
2013-02-09 22:24:00,45.2,39.7,30.09,ESE,119,0.0,0.0,81,0.00,,,0.02,Wunderground v.1.15,2013-02-10 06:24:00,
2013-02-09 22:34:00,45.1,39.6,30.09,ESE,102,0.0,0.0,81,0.00,,,0.02,Wunderground v.1.15,2013-02-10 06:34:00,
2013-02-09 22:44:00,44.7,39.2,30.09,ESE,113,0.0,0.0,81,0.00,,,0.02,Wunderground v.1.15,2013-02-10 06:44:00,
2013-02-09 22:54:00,44.4,39.2,30.09,East,98,0.0,0.0,82,0.00,,,0.02,Wunderground v.1.15,2013-02-10 06:54:00,
2013-02-09 23:04:00,44.4,39.2,30.09,ESE,106,0.0,0.0,82,0.00,,,0.02,Wunderground v.1.15,2013-02-10 07:04:00,
2013-02-09 23:14:00,44.6,39.4,30.09,East,95,0.0,0.0,82,0.00,,,0.02,Wunderground v.1.15,2013-02-10 07:14:00,
2013-02-09 23:24:00,44.4,39.2,30.10,East,90,0.0,0.0,82,0.00,,,0.02,Wunderground v.1.15,2013-02-10 07:24:00,
2013-02-09 23:34:00,44.3,39.2,30.10,East,90,0.0,0.0,82,0.00,,,0.02,Wunderground v.1.15,2013-02-10 07:34:00,
2013-02-09 23:44:00,44.7,39.5,30.10,East,88,0.0,0.0,82,0.00,,,0.02,Wunderground v.1.15,2013-02-10 07:44:00,
2013-02-09 23:54:00,44.7,39.5,30.10,East,88,0.0,0.0,82,0.00,,,0.02,Wunderground v.1.15,2013-02-10 07:54:00,